USA 167

Satellite information

Favourite Embed

Satellite Type and Status

PAYLOADIN ORBIT

Key statistics

Satellite USA 167 at a glance.

Uptime

8155

Days in orbit

Revolutions

≈ 1.0

Per day

Orbit

OTHER

Other

Inclination

10.3

Latest

Satellite identification and parameters

Extended collection of information and parameters for USA 167.

Object identification

Identified? True

Debris? False

Object name: USA 167

International designator: 2003-008A

Object number (NORAD): 27691

Object ID (CCSDS): 27691

Country: UNITED STATES OF AMERICA (US)

Current information (Y/N): Y

RCS size: LARGE

Orbital parameters

Period: 1436.08 minutes

Inclination: 10.2724 deg

SMA: 42164.398 km

Apoapsis: 35794.414 km

Periapsis: 35778.113 km

RAAN: 46.4047 deg

Eccentricy: 0.0001933

Argument of periapsis: 316.2081 deg

Mean anomaly: 47.2477 deg

Mean motion: 1.00272975 rev/day

Mean motion (dot): 0.00000011 rev/day2

B* drag term: 0.0 1/REarth

Two-line elements (TLE)

Creation date: July 8, 2025, 2:27 a.m.

Reference frame: TEME

Reference center: EARTH

Epoch: July 7, 2025, 4:22 p.m. UTC

TLE line 0: 0 USA 167

TLE line 1: 1 27691U 03008A 25188.68220819 .00000011 00000-0 00000-0 0 9998

TLE line 2: 2 27691 10.2724 46.4047 0001933 316.2081 47.2477 1.00272975 3327

Live tracking on map

Real-time ground track for satellite USA 167.

In-orbit conjunctions

There are no conjunctions computed for USA 167, at the moment. Check back to stay up to date, as we update our databases every day.

Go to all conjunctions

Associated space launch

The U.S. Air Force Space Command operates 10 Phase III DSCS satellites providing defense officials and battlefield commanders secure voice and high rate data communications. The DSCS III system also transmits space operations and early warning data to various systems and users.

USA 167 was lifted into orbit during the mission ‘Delta IV M | DSCS III A-3’, on board a Delta IV M space rocket.

The launch took place on March 11, 2003, 12:59 a.m. from Space Launch Complex 37B.

For more information about the launch, click the button.

Launch to space Delta IV M | DSCS III A-3
Delta IV M | DSCS III A-3

Agency: N/A

Status: Launch Successful

Launch date: March 11, 2003, 12:59 a.m. UTC

Rocket: Delta IV M

Launch pad: Space Launch Complex 37B

Location: Cape Canaveral SFS, FL, USA

...

Latest news about this satellite

There are no fresh news available about this satellite. Check back as we update our databases every day.


Newsletter sign-up

Weekly statistics, charts and insights to help you stay on top of the space industry.